This demonstration page uses our WeatherBlox Daily Observations layout. Learn more.

36.17497, -115.13722

Hourly Observations for February 18, 2015

Temp ( °F °C ) Dew Point ( °F °C ) Humidity (%) Winds ( mph kmh ) Pressure ( in mb ) Visibility ( mi km ) Precip ( " mm )
12:53 am 00:53 Clear 50 10 17 -8.3 27 27 Calm 30.21 1023 10 16.0934 0 0
1:53 am 01:53 Clear 49 9.4 18 -7.8 29 29 WSW 3 6 30.21 1023 10 16.0934 0 0
2:53 am 02:53 Clear 48 8.9 18 -7.8 30 30 WNW 8 13 30.21 1023 10 16.0934 0 0
3:53 am 03:53 Clear 47 8.3 20 -6.7 34 34 WSW 5 7 30.22 1023 10 16.0934 0 0
4:53 am 04:53 Clear 51 10.6 15 -9.4 24 24 N 3 6 30.22 1023 10 16.0934 0 0
5:53 am 05:53 Clear 46 7.8 19 -7.2 34 34 Calm 30.23 1024 10 16.0934 0 0
6:53 am 06:53 Sunny 45 7.2 20 -6.7 37 37 WNW 6 9 30.26 1025 10 16.0934 0 0
7:53 am 07:53 Sunny 51 10.6 19 -7.2 28 28 Calm 30.28 1025 10 16.0934 0 0
8:53 am 08:53 Sunny 56 13.3 16 -8.9 21 21 Calm 30.27 1025 10 16.0934 0 0
9:53 am 09:53 Sunny 59 15 17 -8.3 19 19 SSE 3 6 30.27 1025 10 16.0934 0 0
10:53 am 10:53 Sunny 62 16.7 13 -10.6 14 14 SE 7 11 30.26 1025 10 16.0934 0 0
11:53 am 11:53 Sunny 64 17.8 10 -12.2 12 12 E 6 9 30.24 1024 10 16.0934 0 0
12:53 pm 12:53 Sunny 67 19.4 9 -12.8 10 10 Calm 30.19 1022 10 16.0934 0 0
1:53 pm 13:53 Sunny 68 20 8 -13.3 9 9 VRB 3 6 30.16 1021 10 16.0934 0 0
2:53 pm 14:53 Sunny 70 21.1 8 -13.3 9 9 SSW 3 6 30.14 1021 10 16.0934 0 0
3:53 pm 15:53 Sunny 72 22.2 9 -12.8 8 8 NE 3 6 30.13 1020 10 16.0934 0 0
4:53 pm 16:53 Sunny 70 21.1 10 -12.2 10 10 Calm 30.12 1020 10 16.0934 0 0
5:53 pm 17:53 Clear 68 20 12 -11.1 11 11 SSE 3 6 30.14 1021 10 16.0934 0 0
6:53 pm 18:53 Clear 64 17.8 16 -8.9 15 15 Calm 30.14 1021 10 16.0934 0 0
7:53 pm 19:53 Clear 61 16.1 21 -6.1 21 21 NW 5 7 30.15 1021 10 16.0934 0 0
8:53 pm 20:53 Clear 58 14.4 22 -5.6 25 25 NW 5 7 30.15 1021 10 16.0934 0 0
9:53 pm 21:53 Clear 56 13.3 23 -5 28 28 N 3 6 30.16 1021 10 16.0934 0 0
10:53 pm 22:53 Clear 54 12.2 22 -5.6 29 29 NNW 6 9 30.16 1021 10 16.0934 0 0
11:53 pm 23:53 Clear 53 11.7 22 -5.6 30 30 Calm 30.15 1021 10 16.0934 0 0

Powered by AerisWeather